Wind_Speed
4 4 4 4 4 4 4 5 6 6 6 7 8 8 9 10 10 11 12 13 14 14 15 14 14 15 16 16 16 17 17 18 18 18 19 20 21 22
5 6 6 5 6 6 6 6 6 7 7 9 9 10 11 12 12 13 13 14 16 17 16 16 17 17 18 18 19 19 20 19 20 20 20 21 22 23
7 7 7 7 7 7 7 8 8 8 9 10 11 12 13 14 14 15 15 16 17 17 17 18 18 20 20 20 21 21 22 23 23 24 25 25 26 27
8 8 8 8 8 8 9 9 10 10 11 12 13 14 15 15 16 17 17 17 17 18 19 20 21 21 22 22 23 24 25 25 26 27 28 29 30 31
10 10 10 10 10 10 11 11 12 12 13 14 14 15 16 16 17 18 18 19 20 21 21 22 23 24 24 25 26 27 28 28 29 30 31 32 33 34
12 12 12 12 12 13 13 14 14 15 15 16 17 17 18 19 20 20 20 21 22 23 24 25 26 26 27 28 29 30 31 31 32 33 34 35 36 36
13 14 14 14 14 15 16 16 17 18 18 19 19 20 20 21 22 22 23 24 24 25 26 27 28 29 30 31 32 32 33 34 35 36 37 38 38 38
15 16 16 16 17 18 18 19 20 20 21 22 22 22 23 24 25 25 26 27 27 28 29 30 31 32 33 34 35 37 38 38 39 40 41 42 42 42
17 18 18 19 20 20 21 21 22 23 24 24 25 25 26 27 28 28 29 30 31 31 32 33 34 36 36 38 39 41 42 43 44 44 45 45 45 46
19 20 20 21 22 23 23 24 24 25 26 27 27 28 28 29 30 31 32 33 34 35 36 37 38 39 40 41 43 45 46 47 47 48 48 48 49 49
22 22 23 24 25 26 26 27 27 28 28 29 30 31 32 33 34 35 35 36 37 38 39 40 41 42 43 45 46 47 48 49 49 50 51 51 51 52
25 26 27 28 28 29 29 30 30 30 31 32 33 34 35 36 37 38 39 40 40 41 42 43 44 45 45 46 47 48 49 49 50 51 52 52 52 53
27 28 29 30 31 31 32 33 33 34 35 36 36 37 38 39 39 40 41 42 43 43 44 45 46 47 48 48 48 49 49 50 50 51 51 52 53 54
29 30 31 32 32 33 34 35 36 37 38 39 39 39 40 41 42 42 43 44 45 46 46 47 48 49 50 51 51 50 51 52 52 53 53 54 54 55
32 33 34 34 35 36 37 38 39 40 41 41 42 42 43 43 44 45 46 47 48 49 50 51 52 52 53 54 54 54 54 54 55 55 56 56 56 56
34 35 36 37 38 39 40 41 41 42 43 44 44 45 46 46 47 48 49 50 51 51 52 53 54 55 56 57 57 56 56 56 57 57 57 57 56 56
36 37 38 39 40 41 42 42 43 44 45 46 47 48 48 49 50 51 52 52 53 54 55 56 57 57 57 58 57 57 57 57 58 58 58 57 57 57
38 39 40 41 42 43 43 44 46 47 48 49 49 50 51 52 52 53 54 54 55 56 57 57 57 57 58 58 58 58 58 58 58 58 58 58 57 58
40 41 42 43 44 45 46 47 48 49 50 51 52 52 53 54 54 55 55 56 57 58 58 58 59 59 59 58 58 59 59 59 59 59 59 58 58 57
41 42 43 44 45 46 48 49 50 51 51 52 53 53 54 55 55 56 56 57 58 59 59 59 60 61 61 61 60 60 60 60 60 59 58 57 57 56
42 43 44 45 47 48 49 50 51 52 52 53 53 54 54 55 56 57 58 58 59 60 60 60 61 62 62 62 61 60 60 60 60 59 57 56 55 54
44 45 46 47 48 49 50 50 51 52 52 53 54 55 56 57 58 58 59 59 60 60 61 61 62 62 62 62 61 60 59 58 57 57 55 54 53 52
46 47 47 48 49 50 50 51 51 52 53 54 55 56 57 58 58 59 59 60 60 61 61 61 61 61 61 61 60 59 58 56 55 54 52 51 51 50
Wind_Direction
280 285 284 282 277 276 275 271 270 271 274 274 273 273 271 270 273 276 278 279 277 277 276 271 271 273 275 276 277 277 277 276 273 269 267 266 264 264
274 273 276 280 280 278 276 279 280 278 278 281 280 280 280 277 276 278 280 281 281 280 281 278 275 276 277 278 278 277 276 276 274 272 269 268 269 270
275 276 276 278 281 280 281 281 283 285 286 284 284 283 284 282 280 280 283 284 284 284 284 282 280 278 277 279 280 279 277 276 275 274 273 273 272 272
280 280 281 283 284 283 285 287 286 289 291 290 286 284 284 284 284 284 285 286 287 287 286 284 283 281 280 280 280 280 280 278 277 276 276 276 275 275
278 278 277 278 281 282 283 285 288 289 291 292 292 292 291 290 290 289 290 290 289 289 289 288 286 286 285 282 282 282 282 280 280 279 279 278 276 276
278 278 278 277 279 282 284 286 287 287 290 291 290 290 291 291 291 291 291 293 292 292 290 288 288 287 287 285 285 283 283 283 282 282 281 280 279 278
280 281 279 278 280 283 285 286 288 288 289 291 290 290 290 290 290 290 290 291 292 294 294 293 291 290 289 288 288 287 285 284 283 283 283 281 281 280
280 281 280 280 281 283 285 286 288 290 289 290 290 290 290 290 290 290 291 291 292 292 293 293 292 291 289 288 287 287 286 285 283 282 282 281 281 280
280 280 281 281 282 285 285 286 287 288 289 289 290 291 291 291 291 290 290 290 291 291 292 293 293 292 291 289 289 287 286 285 284 282 281 281 280 279
279 281 281 281 283 284 285 286 287 288 289 289 289 290 291 291 291 291 291 290 291 291 292 292 292 292 292 291 290 289 287 286 284 282 281 281 280 280
281 281 281 282 283 283 285 286 286 288 288 289 289 290 290 291 291 291 290 290 291 291 292 292 292 292 292 292 292 291 289 288 286 284 283 282 281 280
281 281 282 282 283 284 284 285 286 287 288 289 289 290 290 290 291 291 291 291 291 292 292 292 292 292 293 292 292 292 291 290 288 287 285 283 281 281
282 282 283 283 283 283 284 285 286 287 288 288 289 289 289 290 290 290 290 291 291 292 292 292 292 293 293 293 293 292 292 291 290 289 287 285 284 282
283 283 283 284 284 284 284 285 286 287 288 288 288 289 289 289 289 289 289 290 291 291 292 292 292 292 293 293 293 292 291 291 291 290 289 287 286 284
284 284 284 284 285 285 286 286 286 287 287 288 288 288 289 289 289 289 290 290 291 291 292 292 293 293 293 293 293 292 292 291 291 290 289 288 287 286
285 285 285 286 286 287 287 287 287 287 287 288 288 289 289 289 290 290 290 290 291 291 292 293 293 294 294 294 294 293 292 291 290 290 289 288 288 287
286 287 287 288 288 288 288 288 287 287 288 288 288 289 289 290 290 291 291 290 290 291 292 292 293 293 294 294 293 293 292 291 291 290 289 288 288 287
288 288 288 288 288 288 288 288 288 288 288 288 288 289 290 290 291 291 291 291 291 291 292 292 292 292 293 293 293 293 292 292 291 290 289 289 289 288
289 289 290 289 289 290 289 289 289 289 289 289 289 290 290 290 291 291 291 291 291 291 291 291 291 292 292 292 292 292 292 291 291 290 290 290 289 288
290 291 291 291 291 291 291 291 291 291 290 290 290 291 291 291 291 292 291 291 291 291 291 291 291 291 291 292 291 291 291 292 291 290 290 290 289 288
291 292 292 293 293 292 292 292 292 292 292 292 292 292 292 292 292 292 292 292 292 292 291 291 292 291 291 291 291 291 292 292 291 290 290 290 289 288
292 292 293 293 293 293 293 294 294 294 293 293 293 293 293 293 292 292 292 292 292 292 291 291 291 291 291 292 292 291 291 290 290 289 289 290 289 288
293 293 293 294 294 294 294 294 294 295 295 295 295 294 293 293 292 292 292 292 292 292 292 292 291 291 292 292 292 291 291 290 289 288 288 289 289 289
Height
5872 5872 5872 5872 5871 5871 5871 5871 5871 5870 5870 5869 5868 5867 5867 5866 5865 5865 5864 5862 5861 5861 5860 5860 5860 5859 5858 5858 5857 5856 5856 5855 5855 5855 5855 5856 5856 5856
5871 5871 5871 5870 5870 5870 5869 5869 5869 5868 5868 5867 5866 5865 5864 5863 5862 5862 5861 5860 5858 5857 5856 5856 5855 5855 5854 5853 5853 5852 5852 5851 5851 5850 5850 5851 5851 5851
5869 5869 5869 5869 5868 5868 5867 5867 5866 5866 5865 5864 5863 5862 5861 5860 5859 5858 5857 5856 5855 5854 5852 5852 5851 5850 5849 5849 5848 5847 5847 5846 5845 5845 5844 5844 5844 5844
5867 5867 5867 5867 5866 5866 5865 5865 5864 5863 5862 5861 5860 5859 5858 5857 5856 5855 5853 5852 5851 5849 5848 5847 5846 5845 5844 5843 5842 5842 5841 5840 5839 5838 5838 5837 5836 5835
5864 5864 5864 5864 5864 5863 5863 5862 5861 5860 5859 5858 5856 5855 5854 5853 5851 5850 5849 5847 5846 5844 5843 5841 5840 5839 5838 5837 5836 5835 5834 5833 5832 5831 5830 5829 5828 5827
5862 5861 5861 5861 5861 5860 5859 5858 5857 5856 5855 5853 5852 5851 5850 5848 5847 5845 5844 5842 5840 5839 5837 5835 5834 5832 5831 5830 5828 5827 5826 5824 5823 5822 5821 5820 5818 5817
5858 5858 5858 5857 5857 5856 5855 5854 5853 5852 5850 5849 5847 5846 5844 5842 5841 5839 5838 5836 5834 5832 5830 5828 5826 5825 5823 5821 5819 5818 5816 5815 5813 5812 5810 5809 5808 5806
5854 5854 5853 5853 5852 5851 5850 5849 5848 5846 5845 5843 5841 5840 5838 5836 5834 5833 5831 5829 5827 5825 5822 5820 5818 5816 5814 5812 5809 5807 5805 5804 5802 5800 5798 5797 5795 5794
5850 5849 5849 5848 5847 5846 5845 5843 5842 5840 5839 5837 5835 5833 5831 5829 5827 5825 5823 5821 5819 5816 5814 5811 5808 5806 5803 5801 5798 5796 5793 5791 5789 5787 5785 5783 5782 5780
5845 5844 5843 5842 5841 5840 5839 5837 5836 5834 5831 5829 5828 5826 5823 5821 5819 5816 5814 5812 5810 5806 5803 5801 5798 5795 5792 5789 5786 5782 5780 5777 5774 5772 5770 5769 5767 5765
5839 5838 5837 5836 5835 5833 5832 5830 5828 5826 5824 5822 5819 5817 5814 5812 5809 5807 5804 5802 5799 5796 5793 5790 5787 5783 5780 5777 5773 5769 5765 5762 5759 5757 5755 5752 5750 5749
5832 5831 5830 5829 5827 5825 5823 5822 5820 5818 5815 5813 5810 5808 5805 5802 5799 5796 5793 5790 5788 5785 5781 5778 5774 5770 5768 5764 5759 5755 5751 5747 5744 5741 5738 5736 5733 5731
5825 5823 5822 5820 5818 5816 5814 5812 5810 5808 5805 5803 5800 5797 5794 5792 5788 5785 5782 5779 5775 5772 5769 5765 5761 5757 5753 5751 5746 5741 5736 5732 5729 5725 5722 5720 5717 5714
5816 5815 5813 5811 5809 5807 5804 5802 5799 5797 5794 5792 5789 5786 5783 5780 5777 5773 5770 5766 5762 5759 5755 5751 5747 5743 5739 5735 5731 5727 5722 5717 5713 5709 5706 5703 5699 5696
5807 5805 5803 5801 5799 5796 5794 5791 5788 5785 5782 5780 5777 5774 5771 5767 5764 5760 5756 5753 5749 5745 5741 5736 5732 5728 5723 5719 5714 5710 5705 5700 5696 5692 5688 5684 5681 5678
5797 5795 5793 5790 5787 5785 5782 5779 5776 5773 5770 5767 5764 5761 5757 5753 5750 5746 5742 5738 5734 5730 5725 5720 5716 5711 5706 5701 5696 5692 5687 5682 5678 5673 5669 5666 5662 5658
5786 5784 5782 5779 5776 5772 5769 5766 5763 5760 5757 5753 5750 5746 5743 5739 5735 5731 5726 5722 5718 5714 5709 5704 5699 5694 5688 5683 5678 5674 5669 5664 5659 5655 5651 5647 5644 5639
5775 5772 5769 5766 5763 5759 5756 5753 5749 5746 5742 5739 5735 5731 5727 5723 5719 5714 5710 5705 5701 5697 5692 5687 5681 5677 5672 5667 5661 5656 5651 5646 5641 5636 5631 5628 5625 5621
5762 5759 5756 5753 5749 5746 5742 5738 5735 5731 5727 5723 5719 5715 5711 5706 5702 5697 5692 5688 5684 5679 5674 5668 5663 5658 5653 5650 5645 5638 5632 5628 5623 5618 5613 5609 5606 5602
5749 5746 5742 5739 5735 5731 5727 5723 5719 5715 5711 5707 5703 5698 5694 5689 5685 5680 5675 5670 5665 5660 5655 5650 5645 5639 5634 5630 5627 5621 5614 5608 5603 5599 5595 5590 5587 5583
5736 5732 5729 5725 5720 5716 5712 5708 5703 5699 5695 5690 5686 5682 5677 5672 5667 5662 5657 5652 5647 5642 5637 5632 5626 5620 5614 5609 5606 5603 5597 5590 5584 5579 5575 5571 5568 5565
5723 5719 5715 5710 5706 5701 5696 5692 5688 5683 5679 5674 5669 5665 5660 5655 5650 5644 5639 5634 5628 5623 5618 5613 5608 5602 5596 5591 5586 5583 5579 5573 5567 5562 5558 5553 5548 5546
5709 5704 5700 5696 5691 5686 5681 5677 5672 5667 5662 5657 5652 5647 5642 5637 5631 5626 5620 5615 5610 5604 5599 5594 5589 5583 5577 5572 5567 5563 5559 5555 5550 5546 5543 5538 5533 5529